Wind_Speed
8 7 6 6 6 6 7 7 8 8 8 8 8 9 9 9 9 8 8 7 7 7 8 9 9 10 10 11 12 13 14 14 15 15 16 16 15 15 16 16 16 16 16 17 17 18 19 20 21 22 24 25 26 28 29 31 32 33 35 36 37 37 36 37 37 37 38 37 36 33 34 33 29 29 29 27 28 30 29 27 26 29 33 37 39 35 37 41
9 8 7 7 7 7 7 8 8 9 9 9 9 9 10 10 9 9 8 8 8 9 9 10 11 11 11 12 13 14 14 15 15 15 16 16 15 16 16 16 16 16 16 17 17 18 19 20 22 23 24 25 26 27 29 30 30 32 33 34 34 34 35 35 35 36 37 38 39 38 34 32 30 28 30 29 26 30 32 28 25 29 36 42 41 32 28 33
11 9 8 7 7 7 8 8 9 9 9 9 9 10 10 10 10 10 10 10 10 10 11 11 11 12 12 13 14 14 14 15 15 16 15 15 15 16 15 15 15 15 16 17 17 18 19 20 22 23 24 25 25 26 27 27 28 30 30 30 30 30 31 31 32 33 35 38 38 38 33 32 31 29 32 32 24 26 30 27 24 27 35 42 43 36 27 22
12 11 10 9 8 8 8 9 9 10 10 10 10 10 10 10 10 10 11 11 11 12 12 12 12 12 11 12 13 14 15 14 15 15 15 15 15 15 14 14 15 15 16 16 17 18 19 21 22 23 23 23 23 24 24 24 26 27 26 25 26 27 26 26 27 28 32 36 37 37 34 32 33 33 34 33 26 23 26 27 25 26 32 36 38 40 35 21
12 12 11 11 10 10 9 9 9 10 10 10 11 11 11 11 11 11 11 12 12 12 12 12 11 11 10 11 13 14 15 14 15 15 15 14 14 14 14 14 15 15 16 16 17 18 19 20 21 22 22 20 20 21 20 21 22 21 22 21 22 22 21 21 23 24 27 31 32 35 35 33 34 37 37 32 28 26 27 29 27 28 32 36 36 39 39 28
13 13 13 12 12 11 11 10 10 10 10 10 11 11 11 11 11 11 11 11 12 12 11 11 11 10 10 11 13 14 14 14 15 15 14 14 13 13 14 14 15 15 15 16 17 18 19 20 21 21 19 18 19 19 17 18 18 18 19 18 18 19 18 19 22 24 26 28 29 32 35 35 35 40 40 34 30 29 29 31 31 32 33 36 40 40 42 39
14 14 13 13 13 12 12 11 11 11 11 11 11 11 11 11 10 11 11 11 11 11 11 11 11 11 11 11 12 14 14 14 15 15 13 13 13 13 13 14 14 15 15 16 17 18 18 19 20 20 17 16 18 17 15 16 16 16 17 17 18 18 17 18 21 22 24 25 27 29 32 34 36 42 43 37 33 31 30 30 33 37 35 34 37 36 36 40
13 14 14 14 13 13 13 12 12 12 12 12 12 12 12 11 11 11 12 12 12 12 12 12 11 11 11 12 12 13 14 13 13 14 13 13 13 13 13 13 14 15 15 16 17 17 17 18 18 17 15 14 15 15 13 15 16 15 16 17 16 16 15 17 18 20 22 20 21 24 29 32 34 41 45 42 36 33 31 30 31 37 39 38 37 35 32 33
14 13 14 14 14 14 13 13 13 13 13 13 13 13 13 13 13 13 13 13 13 13 12 12 12 12 12 12 11 12 14 14 12 13 13 12 12 13 13 13 14 15 15 15 16 16 16 15 15 15 13 13 13 12 11 13 15 14 16 16 13 13 13 15 17 19 21 17 15 17 23 26 31 38 44 46 42 35 34 33 32 36 40 42 40 37 34 32
15 14 14 14 14 14 14 14 14 14 13 14 14 14 14 14 14 14 14 14 14 14 14 14 13 14 13 12 11 12 13 13 13 12 12 13 13 13 13 13 14 15 15 15 15 16 15 14 14 14 13 11 10 11 11 11 13 14 15 13 11 11 12 14 16 18 21 19 16 15 17 20 26 35 41 46 46 39 36 38 37 38 42 44 43 38 35 36
15 15 15 15 15 15 15 14 14 14 14 14 15 15 15 15 15 15 16 16 16 15 15 15 14 15 14 13 12 12 12 12 13 12 11 12 13 13 13 13 14 14 14 15 15 15 15 14 13 13 12 10 9 9 10 10 12 13 13 12 10 12 13 14 14 14 17 17 14 13 14 16 18 27 36 42 44 41 39 40 42 43 43 42 43 40 35 35
17 16 16 16 16 15 15 15 15 15 15 15 16 16 16 16 16 16 16 16 16 16 16 15 15 15 15 14 13 12 12 11 12 12 12 12 13 13 13 13 14 14 14 15 15 15 15 13 12 12 10 9 9 8 9 10 10 11 10 10 10 11 13 13 12 11 12 9 7 5 4 8 10 16 29 39 42 43 42 42 42 43 42 40 39 39 37 36
19 18 17 17 17 16 16 16 16 16 16 17 17 17 17 16 16 17 17 17 17 17 16 16 15 15 15 15 14 13 12 12 11 11 12 12 13 13 13 13 13 13 14 15 15 15 14 13 11 11 10 9 9 8 10 10 10 10 8 8 9 10 11 11 10 10 9 6 6 3 6 5 9 11 23 36 40 42 44 44 42 41 40 39 38 36 36 38
20 19 19 18 18 17 17 17 16 16 17 17 18 18 18 17 17 17 17 18 18 17 17 17 15 15 16 15 14 14 12 12 12 12 11 12 13 13 13 13 13 13 14 14 15 14 13 12 11 10 9 9 10 10 10 11 12 11 7 7 8 8 9 8 8 9 7 6 9 3 6 6 9 12 18 29 36 39 41 42 42 41 42 42 41 38 37 39
21 21 20 19 19 18 18 18 17 17 17 18 18 18 18 18 18 18 18 18 18 18 17 17 16 15 16 15 14 14 14 12 12 12 12 12 12 13 12 13 13 13 14 14 14 14 13 12 11 10 9 10 10 11 11 11 12 11 8 8 9 8 9 9 7 8 5 7 12 3 8 6 9 13 14 19 28 34 37 39 41 43 45 45 44 42 41 42
22 21 21 21 20 19 19 19 19 18 18 18 18 19 19 19 18 19 19 19 19 18 17 16 16 15 15 15 14 14 15 13 11 12 12 12 12 12 13 13 13 13 13 14 14 14 14 13 12 10 10 11 11 10 11 12 13 12 11 11 11 9 9 8 7 6 6 10 10 5 11 7 9 11 10 11 16 23 28 32 35 38 42 45 43 42 44 45
23 22 22 22 21 21 20 20 19 19 19 19 19 19 19 19 18 18 19 20 19 18 17 15 15 15 14 14 14 14 15 14 12 13 12 12 12 12 12 13 13 13 13 14 15 15 14 14 13 11 10 11 10 10 11 13 12 12 12 11 11 10 9 9 6 6 7 10 9 8 15 9 9 9 7 8 11 14 18 21 24 27 30 34 35 36 38 41
24 23 23 22 22 22 22 21 21 20 20 20 19 20 20 19 18 18 19 20 19 19 16 15 15 14 13 14 14 14 15 14 14 14 13 12 12 11 12 12 13 13 13 14 15 15 15 14 14 13 12 11 11 12 13 14 11 10 11 10 10 10 9 9 7 6 6 7 9 7 13 13 12 11 10 11 14 15 18 20 21 23 22 23 25 27 30 32
26 25 25 24 24 23 23 23 22 22 21 21 20 21 21 20 18 18 19 19 19 19 17 15 15 13 12 14 14 14 15 14 14 14 14 13 12 11 12 12 13 12 12 15 15 14 14 14 15 15 13 11 12 13 14 12 10 10 10 10 12 11 8 8 8 9 9 8 11 10 10 14 14 14 13 15 17 17 20 21 21 21 19 18 20 21 23 24
27 26 26 26 25 25 24 24 24 23 23 22 21 21 21 21 19 18 19 19 18 20 18 15 15 14 13 13 13 14 15 14 13 14 14 13 11 11 12 13 12 12 13 14 15 14 13 14 16 16 15 14 14 14 12 10 9 10 10 10 12 12 8 7 7 10 12 11 11 13 12 12 13 15 16 17 18 19 21 23 22 22 19 15 16 18 19 21
28 27 27 26 26 26 25 24 24 24 24 23 22 22 21 21 19 17 18 19 17 19 19 16 14 15 14 13 13 14 14 13 13 14 14 12 10 10 12 13 12 13 13 13 15 15 13 14 16 15 15 15 14 13 12 10 10 11 11 10 11 12 9 7 7 10 13 11 11 14 14 13 13 15 19 22 22 22 24 25 25 25 23 17 14 16 19 21
28 28 28 27 26 26 25 24 24 24 24 24 23 22 22 21 20 17 17 18 16 17 19 16 15 15 14 14 14 14 14 12 11 13 14 12 9 10 13 14 13 14 13 13 15 15 13 15 15 13 12 12 12 12 12 11 11 11 12 11 11 13 9 7 8 9 12 11 10 13 15 15 17 16 17 21 25 27 27 28 27 27 25 20 15 16 18 21
27 27 28 28 27 26 26 25 24 23 23 24 24 23 23 21 20 18 16 17 16 16 17 16 15 14 15 15 14 13 13 11 10 11 14 13 11 12 13 13 14 15 14 13 15 15 15 15 13 12 11 10 11 12 12 13 11 12 13 12 11 11 9 8 8 9 11 12 11 13 14 15 17 17 16 17 21 25 26 27 27 26 25 23 22 21 19 19
27 27 28 28 28 27 26 25 24 23 22 23 23 23 23 21 20 18 17 17 17 16 16 15 15 14 14 15 14 13 13 12 10 9 13 14 13 13 13 13 14 15 14 14 14 14 15 15 11 10 10 9 10 12 13 14 12 12 14 13 11 11 9 8 8 9 10 11 12 14 15 14 14 15 17 19 19 21 23 23 23 23 23 24 23 22 20 20
26 26 27 28 28 27 26 25 24 23 22 22 22 22 23 22 20 19 17 17 17 16 16 15 15 14 13 14 13 13 13 13 12 10 12 14 14 14 14 14 15 15 14 13 14 15 15 15 13 11 10 10 10 11 14 14 11 13 15 13 11 11 11 10 10 11 10 10 13 15 15 13 12 12 15 20 21 21 21 21 21 21 20 19 18 17 18 20
26 26 25 26 27 27 26 25 24 22 22 22 21 21 22 21 20 19 18 18 16 16 17 15 14 13 13 14 14 13 13 13 12 10 12 14 14 14 14 14 15 15 15 13 13 14 15 16 15 12 11 10 10 11 13 13 12 14 18 15 11 11 12 11 12 13 13 11 12 14 14 13 12 12 14 19 22 21 20 20 19 19 19 18 17 17 18 19
26 26 25 25 25 26 25 24 23 22 21 21 21 21 21 20 19 18 18 19 17 15 16 15 14 13 13 14 14 13 13 13 13 12 13 15 14 13 14 14 15 16 15 13 13 14 15 16 15 11 10 11 11 11 12 12 12 15 18 17 14 14 14 13 12 14 15 14 14 14 15 15 13 12 15 20 22 19 17 16 14 13 15 17 18 18 19 20
25 26 26 25 25 24 24 23 23 22 20 20 20 20 20 20 19 18 19 19 17 14 14 14 14 14 14 15 14 13 12 12 12 12 15 16 14 13 14 13 15 17 15 13 13 14 15 15 15 12 11 12 12 10 10 12 13 14 17 18 17 18 17 15 14 14 15 15 14 15 17 17 14 12 16 20 20 17 14 13 11 10 11 14 17 19 21 21
24 25 26 26 25 24 22 22 23 22 20 19 19 19 19 19 18 18 19 20 19 15 14 15 15 14 14 14 14 12 11 10 11 12 14 16 16 15 15 15 16 17 15 13 13 14 15 14 15 14 13 13 12 9 10 12 13 14 16 18 18 19 18 18 16 15 16 16 15 16 18 18 15 14 17 19 18 16 14 13 13 11 11 13 18 21 23 21
21 23 25 26 25 24 23 21 21 22 21 19 19 18 17 18 17 18 19 20 20 16 13 14 14 14 13 13 13 12 11 10 12 14 14 15 16 16 16 16 16 17 16 14 13 15 16 14 15 15 16 15 12 11 12 12 13 14 15 16 17 17 17 17 16 16 17 17 16 17 17 16 15 13 16 19 18 17 15 14 13 12 12 15 19 22 22 20
20 21 22 24 25 24 23 22 21 21 21 19 19 18 16 16 17 18 18 18 19 17 15 13 11 13 14 14 14 13 13 13 13 13 14 14 16 17 17 17 16 16 17 15 14 16 15 14 14 15 17 17 13 13 14 13 13 13 14 16 16 16 16 16 16 18 18 17 17 18 16 15 14 12 12 15 18 19 18 15 14 14 16 19 21 22 20 17
21 21 21 23 24 23 21 21 21 21 22 20 18 17 16 17 18 20 19 18 20 20 17 13 12 14 15 16 15 15 16 16 15 14 14 15 16 17 17 18 17 17 18 18 16 15 14 14 13 14 18 17 13 15 15 14 13 12 15 17 16 16 16 15 16 18 18 17 18 19 19 18 15 12 12 13 17 20 20 18 17 18 19 21 21 21 19 17
22 21 21 21 22 22 19 18 18 19 19 19 18 17 16 17 19 20 19 18 19 19 17 15 15 17 17 18 17 16 17 17 17 16 16 16 16 17 17 18 18 17 18 18 16 14 13 13 13 15 16 13 10 13 14 13 13 15 16 17 16 17 15 12 13 15 15 15 17 19 20 19 17 16 16 15 15 17 18 20 20 20 20 20 21 21 20 19
23 20 21 21 21 20 18 17 16 16 16 17 17 16 16 17 19 20 19 18 18 19 18 17 18 18 17 18 19 18 18 19 18 18 18 18 17 18 18 18 18 16 15 15 14 13 12 13 15 16 15 12 10 14 15 12 13 16 18 17 16 16 14 12 12 12 13 13 15 18 20 18 17 17 18 17 16 16 17 19 21 22 21 20 21 22 21 20
23 21 19 19 20 20 18 17 16 15 15 17 18 18 18 18 20 21 21 20 19 21 20 20 21 20 18 20 22 21 20 21 20 19 19 18 17 20 21 19 18 16 14 13 12 11 11 13 16 17 16 15 15 17 15 13 14 16 18 17 16 16 15 13 13 13 13 12 13 17 18 16 15 15 15 15 15 16 17 19 21 23 23 22 22 21 20 20
22 21 18 17 18 19 18 17 16 15 14 15 17 20 22 22 22 23 23 23 23 22 21 21 22 22 22 24 25 24 22 21 22 20 19 18 17 21 23 21 19 16 14 14 13 12 12 13 16 17 17 17 19 18 16 15 15 15 15 16 16 17 16 14 14 15 14 13 14 15 16 15 14 14 14 15 16 17 18 19 20 20 22 23 22 19 18 20
21 21 19 17 17 18 18 17 17 16 15 15 15 16 18 19 20 21 22 23 24 23 22 22 23 24 25 26 25 25 23 21 22 21 18 17 18 20 22 23 21 19 15 14 14 14 13 12 14 17 19 18 19 19 18 16 16 14 14 16 17 17 17 16 15 16 16 16 16 17 17 16 16 15 15 16 18 18 19 19 19 19 19 19 19 19 22 24
21 20 18 18 18 18 18 18 18 18 17 16 16 15 15 15 14 16 18 20 21 22 23 23 22 23 25 26 25 25 24 22 22 22 20 20 19 20 22 24 23 20 16 14 15 16 16 12 14 18 19 19 19 19 20 18 16 16 17 18 18 17 18 18 17 16 18 19 19 19 19 17 16 16 17 18 18 19 20 19 20 19 19 20 22 25 27 27
22 21 18 17 18 18 18 18 19 20 18 17 18 17 16 16 16 16 17 19 20 22 24 24 22 22 24 26 26 26 25 23 23 23 22 22 22 21 22 24 24 22 19 18 17 18 18 13 15 19 18 18 19 19 20 20 19 18 17 19 19 19 20 20 19 19 20 20 21 20 19 17 17 18 18 18 20 21 21 21 21 21 21 23 26 27 28 28
23 22 19 17 17 17 17 17 19 19 19 20 21 19 17 16 17 17 17 18 20 20 23 25 24 23 24 25 26 26 27 25 25 24 23 23 23 23 23 24 25 22 20 20 19 19 20 16 15 19 18 18 20 20 20 21 22 21 18 20 21 20 21 20 20 21 22 22 22 22 19 16 17 20 20 20 22 23 23 22 21 21 21 23 26 26 26 27
23 22 21 19 18 17 17 18 18 19 19 20 20 20 19 18 18 19 18 18 19 20 21 23 24 24 25 26 27 28 28 26 25 24 23 24 24 25 24 24 26 23 19 19 18 18 21 18 16 17 19 18 19 21 21 21 21 20 20 21 22 21 22 21 21 21 23 23 22 23 22 17 17 21 21 21 23 23 23 22 21 21 22 23 25 25 25 26
24 23 22 21 19 17 16 17 18 18 19 18 18 19 20 20 20 19 18 18 19 20 20 21 24 25 26 27 28 28 27 25 23 23 23 25 25 25 24 24 24 22 19 19 20 20 22 20 18 18 19 19 20 22 22 21 20 20 18 20 22 23 23 22 22 21 22 23 23 25 26 20 19 23 23 23 24 23 23 22 22 22 22 24 25 25 26 28
25 23 23 22 19 17 16 16 16 17 17 16 17 18 19 20 20 19 19 19 18 18 19 22 24 25 26 26 26 26 24 21 21 22 22 24 24 23 24 24 22 21 20 20 20 22 22 21 19 18 18 19 22 25 23 21 21 20 18 19 22 24 24 23 23 21 21 21 22 26 28 24 23 26 26 26 26 25 24 23 22 23 23 25 27 27 28 29
24 23 22 21 19 17 16 16 16 16 16 16 16 17 18 18 18 17 18 20 18 17 17 21 22 23 24 25 24 23 23 21 21 22 21 22 22 22 23 22 21 20 20 20 20 22 23 22 20 19 17 19 22 24 23 21 22 21 20 21 23 24 25 25 24 23 23 22 23 27 27 24 26 28 28 28 27 26 25 24 23 24 25 26 28 28 29 31
24 23 22 20 19 18 16 16 17 17 17 17 16 15 16 17 16 17 18 19 19 17 17 19 22 23 25 24 23 23 24 24 22 21 21 21 21 22 22 21 21 21 21 21 21 22 24 23 21 19 19 19 22 23 23 22 22 21 21 22 23 24 25 26 26 26 26 24 25 27 27 25 27 29 27 26 26 26 26 26 26 26 28 29 30 31 32 33
22 22 22 20 19 18 16 16 17 18 18 18 16 14 14 14 16 17 18 17 17 17 18 19 22 25 28 28 26 24 25 24 22 20 20 20 21 22 22 21 22 21 20 21 22 22 23 23 22 21 19 20 21 22 23 23 21 21 22 23 24 25 27 28 28 27 27 27 26 25 26 28 28 28 27 26 26 27 28 28 29 29 30 31 32 34 34 33
23 21 20 20 20 18 17 16 17 17 18 17 16 14 13 12 13 15 16 16 16 16 18 19 20 23 27 30 29 27 25 25 24 22 20 20 20 20 20 21 22 21 21 22 24 23 21 20 21 22 20 19 20 21 23 22 21 21 23 23 23 25 26 28 28 27 28 30 27 23 26 29 27 27 29 28 27 27 28 29 30 31 32 33 34 35 35 34
26 23 19 19 20 19 17 17 16 16 16 16 15 14 12 11 13 14 15 17 18 18 19 20 20 20 22 26 29 29 27 25 24 23 22 22 21 19 19 21 23 23 22 23 25 24 21 19 20 22 21 20 20 20 22 22 21 21 23 23 22 22 22 24 26 26 28 31 28 24 26 27 26 28 30 30 29 28 28 29 31 32 33 33 34 35 35 33
26 26 23 20 19 19 18 18 17 17 17 17 16 16 15 14 14 15 16 17 20 21 22 23 22 21 20 20 23 27 28 26 24 24 25 23 21 20 20 21 23 23 22 23 25 24 22 20 20 21 21 20 20 20 21 21 21 21 22 23 22 20 21 23 25 26 28 28 27 26 26 25 26 28 30 29 29 28 28 30 30 31 31 32 33 33 32 31
25 26 26 24 21 20 19 18 17 18 18 18 18 18 18 17 16 17 18 19 21 22 24 25 25 23 21 20 20 23 27 29 29 29 28 26 24 24 23 20 21 24 23 24 25 24 23 21 19 19 19 19 20 20 20 21 21 20 20 22 24 23 23 24 26 27 27 25 24 26 26 25 25 28 28 28 27 27 28 29 29 29 29 30 30 29 28 29
24 24 25 25 23 21 21 19 18 18 18 18 18 19 19 19 18 19 20 21 21 23 24 25 25 24 23 21 20 22 25 29 31 30 29 29 27 27 26 23 23 25 25 25 25 24 23 21 19 18 17 16 19 21 21 21 20 19 20 22 24 25 24 24 25 27 27 26 25 26 26 25 26 27 27 28 28 28 28 28 27 27 27 27 27 26 26 27
25 24 24 24 23 22 21 20 19 18 18 17 18 19 20 20 20 18 19 20 21 21 23 23 23 23 22 22 22 22 23 25 28 29 29 30 28 27 28 26 25 24 24 24 24 23 21 20 19 19 16 14 18 21 21 19 18 19 22 23 23 24 24 24 25 26 26 25 24 25 26 26 26 27 27 27 28 28 28 27 26 25 24 24 24 25 26 27
Wind_Direction
341 334 325 317 308 303 301 299 297 294 292 290 289 292 295 297 294 288 282 277 272 267 264 262 263 265 268 272 276 279 283 285 288 290 290 290 289 287 285 284 283 280 279 279 281 282 283 284 284 285 283 281 280 278 276 275 274 273 271 269 268 267 266 264 261 259 257 254 250 244 244 244 231 223 220 217 229 230 229 236 241 245 248 249 246 241 240 241
343 338 330 321 313 308 304 301 299 296 292 290 289 289 291 293 292 288 283 277 273 269 268 268 270 272 275 278 280 283 286 288 290 290 289 289 288 286 285 283 281 280 280 281 283 284 285 287 287 287 284 282 281 279 278 277 275 273 271 270 271 270 267 264 262 259 257 253 249 245 241 237 227 216 211 211 226 234 232 233 236 241 241 240 237 236 241 237
346 340 335 328 320 314 310 306 304 301 297 293 290 289 289 290 288 286 282 278 275 273 273 275 276 278 281 282 283 285 287 289 290 288 288 287 286 284 282 281 280 281 281 283 284 286 288 288 288 287 286 285 285 283 281 279 276 275 275 276 276 274 273 269 265 260 256 254 250 247 238 228 220 208 203 205 216 236 238 236 241 244 242 239 234 232 238 238
344 341 336 331 324 319 315 311 308 305 301 297 293 291 289 289 287 284 281 278 277 277 279 280 281 284 284 285 285 286 287 287 287 287 287 287 284 282 281 280 281 281 282 284 286 288 288 288 288 288 288 288 287 285 282 280 279 281 283 283 281 278 277 275 270 264 258 255 251 247 239 225 216 203 199 202 209 231 243 244 247 249 248 245 240 237 237 233
340 338 336 331 327 323 319 315 312 307 304 301 297 294 292 291 289 286 283 281 281 282 283 285 287 289 288 286 285 286 287 287 287 287 287 285 283 281 280 280 280 281 282 285 288 288 288 289 290 291 291 291 289 286 284 284 284 286 285 284 284 281 281 278 273 268 262 259 253 248 242 228 214 203 199 201 209 221 236 243 244 244 247 248 245 242 238 230
335 334 333 331 328 326 323 320 316 312 310 306 303 300 297 295 293 292 289 288 288 289 290 292 294 293 291 287 283 284 286 287 287 286 285 283 280 278 277 279 280 281 284 287 287 287 289 291 294 296 298 297 294 292 291 292 293 294 293 295 296 293 290 284 279 277 274 269 260 251 246 233 215 206 203 202 209 217 227 236 241 240 243 249 247 244 240 237
333 331 330 328 326 325 324 321 318 315 313 310 307 304 302 300 299 298 296 296 296 296 297 297 297 294 291 286 283 284 285 285 286 285 282 278 275 275 276 279 281 283 285 287 287 290 293 297 301 304 305 303 299 300 302 301 302 304 308 314 312 306 302 293 291 291 288 282 271 259 251 239 220 209 205 205 211 214 220 229 235 237 238 245 244 241 243 242
329 328 326 325 324 323 321 319 316 314 313 310 307 305 304 302 301 300 299 298 298 297 298 297 296 293 289 285 283 283 285 287 284 281 277 274 275 278 280 282 283 284 286 288 291 294 299 304 306 307 307 303 300 305 310 309 312 316 319 321 319 315 309 303 300 295 290 285 276 265 253 245 231 215 206 208 213 211 217 223 228 234 236 241 240 237 241 243
323 323 322 321 320 320 319 318 315 313 311 308 306 305 304 303 303 302 300 298 297 296 296 295 294 291 288 286 283 282 287 288 281 277 277 277 278 280 281 283 285 286 289 291 293 296 302 307 306 305 305 302 302 310 317 316 318 322 322 322 321 318 310 303 298 292 292 286 271 259 253 249 238 223 210 210 214 211 217 222 224 230 232 236 240 237 237 240
318 317 315 315 314 315 315 315 314 312 310 307 305 303 303 303 303 302 300 299 298 297 296 295 294 292 289 287 285 284 286 285 279 275 277 279 280 281 283 285 286 288 291 292 294 298 304 305 303 306 307 304 307 314 320 321 319 319 319 320 315 310 303 295 295 298 300 297 280 262 257 253 240 227 214 211 216 216 219 223 224 227 229 232 236 237 235 237
313 312 310 308 307 308 308 309 310 310 309 307 305 303 302 302 302 301 300 299 298 297 296 295 294 293 292 288 286 285 282 278 277 275 273 277 280 281 282 284 286 289 292 293 296 300 303 304 304 307 307 304 306 313 318 321 319 314 312 315 310 305 302 296 301 305 303 304 297 279 267 260 246 231 217 213 218 219 220 225 227 228 228 228 230 234 235 233
308 307 306 304 302 301 302 303 304 305 306 305 305 304 303 303 303 302 301 300 299 298 295 294 293 294 292 287 286 284 277 269 270 274 276 278 280 280 281 283 287 291 293 295 298 301 303 304 304 305 303 298 300 309 313 314 317 314 308 311 311 307 306 296 295 302 301 313 326 319 292 257 244 229 218 215 220 221 221 226 232 232 228 224 225 231 236 235
302 302 302 301 299 297 296 297 298 299 300 301 302 303 304 305 305 305 304 302 301 300 298 295 293 293 289 286 286 283 274 269 267 268 273 278 279 281 283 286 290 292 294 295 297 300 302 302 302 301 297 290 291 300 306 308 314 319 312 313 319 312 307 295 291 309 317 337 354 49 107 188 216 218 218 215 217 221 221 225 232 236 236 234 231 234 240 241
298 297 297 298 297 296 294 293 293 294 295 296 298 300 302 304 306 308 307 306 303 302 301 297 294 293 288 286 288 283 274 270 268 266 270 274 276 278 281 285 289 291 292 293 296 298 298 300 301 297 292 288 287 288 294 302 311 318 313 320 331 317 312 313 309 321 328 344 343 338 150 174 202 216 223 218 217 219 222 227 232 238 244 247 242 240 244 247
296 294 294 294 295 295 294 292 291 291 292 293 296 298 300 301 304 308 308 307 306 304 303 299 296 291 286 286 286 283 277 269 267 273 278 276 276 278 281 285 287 289 290 291 294 295 295 296 295 293 287 282 283 284 286 295 303 305 304 322 335 322 319 332 333 329 311 312 329 299 181 187 201 211 215 213 216 218 222 228 233 237 242 247 248 248 250 251
295 293 292 292 292 293 293 293 291 289 289 291 294 295 297 299 302 305 306 307 307 306 304 300 295 289 285 285 283 280 276 270 268 275 278 277 277 279 283 286 288 289 289 289 291 292 293 293 292 290 281 278 284 290 290 290 292 299 310 324 331 327 322 326 331 323 287 295 314 185 179 207 215 216 208 198 208 215 220 223 228 233 236 241 246 249 250 250
294 293 291 290 290 291 291 292 291 289 288 289 291 292 293 296 300 303 303 305 306 306 304 301 294 288 283 280 280 280 277 276 275 275 277 278 277 278 283 287 288 290 288 287 289 292 292 291 292 289 281 282 283 281 282 284 292 310 321 324 323 325 320 314 311 297 282 301 310 191 186 200 207 220 223 210 209 215 225 224 225 231 234 238 242 245 245 245
293 293 291 290 289 289 290 290 290 290 288 287 288 288 290 293 297 300 301 303 306 305 304 300 292 289 283 276 276 275 273 274 274 275 278 277 276 277 281 283 285 288 287 284 285 290 292 292 292 287 281 284 282 276 277 282 299 322 327 323 318 323 319 305 290 280 278 289 296 238 201 203 204 211 222 233 231 230 238 240 239 242 244 246 247 248 247 245
293 291 290 290 288 288 288 289 289 289 287 286 285 286 288 291 294 297 299 301 304 304 304 301 294 288 280 277 276 270 266 265 263 267 271 271 273 278 281 282 283 285 283 282 286 291 292 288 285 283 281 281 275 277 282 288 311 326 326 325 319 322 318 300 291 285 284 278 281 274 233 221 219 217 223 239 246 248 253 255 256 256 255 250 244 244 249 250
292 291 290 289 288 287 286 287 287 287 286 284 282 282 284 287 291 295 297 300 303 304 304 304 296 286 276 273 275 271 268 267 263 264 266 268 271 277 280 280 282 283 282 285 292 296 292 280 276 273 272 269 264 272 285 296 314 320 320 323 316 315 308 295 287 269 276 283 275 276 269 249 239 231 226 234 247 256 261 265 269 271 269 256 242 245 253 258
292 290 289 289 288 287 286 285 285 285 284 282 280 280 281 283 287 292 296 298 303 303 302 302 293 285 280 277 276 270 266 265 265 266 264 264 270 278 281 282 283 283 284 288 291 296 293 280 274 264 257 264 271 282 294 299 306 311 312 316 309 305 297 289 286 266 275 290 278 276 283 277 265 246 229 229 238 247 255 263 269 274 278 275 258 253 258 261
294 291 289 288 288 288 286 285 284 282 282 281 280 278 278 279 281 286 290 294 298 297 297 298 292 286 282 277 272 267 267 265 263 267 268 268 275 280 281 285 286 283 287 290 289 296 296 285 281 269 258 269 284 292 298 298 301 306 303 304 302 298 291 287 289 279 280 289 281 275 274 269 270 264 242 231 235 242 252 260 265 270 276 281 276 267 267 270
298 295 292 288 286 286 287 285 284 281 279 279 279 278 277 276 277 280 284 288 290 288 291 294 291 285 277 272 267 265 270 267 258 263 273 277 276 275 276 279 279 281 287 289 290 294 292 291 291 284 281 288 285 284 289 291 297 300 294 291 294 294 290 291 294 290 285 285 277 270 268 261 263 271 266 250 241 243 249 255 261 268 273 277 279 280 282 283
300 298 296 292 287 284 284 284 283 282 280 277 276 276 276 275 275 277 280 283 284 285 288 290 286 280 274 273 274 277 280 275 266 260 268 274 271 268 271 272 274 279 284 286 291 295 295 301 300 285 283 280 271 273 279 285 294 295 286 284 292 298 297 294 294 295 291 282 274 272 275 272 267 269 270 265 255 248 249 254 259 265 271 275 279 282 281 276
300 300 298 296 290 284 280 281 282 281 281 278 275 274 274 274 273 274 276 279 282 286 288 287 283 278 272 272 275 280 281 279 273 260 259 266 269 270 273 276 279 283 287 291 298 302 302 301 295 281 277 278 276 277 278 283 287 283 280 284 300 305 300 293 288 293 295 282 273 275 277 278 274 268 267 269 268 262 259 259 258 260 266 271 275 276 272 266
299 301 302 299 294 285 278 277 279 279 279 279 277 274 272 271 269 270 273 275 279 284 285 285 283 278 271 271 274 276 278 280 276 265 259 261 265 270 273 278 283 285 291 298 300 300 296 291 291 289 284 289 292 282 278 280 278 273 276 283 295 293 287 287 289 295 303 299 292 289 287 284 280 272 268 269 273 276 274 269 265 263 263 263 265 269 267 264
298 300 303 304 300 290 279 275 276 277 277 278 277 275 273 271 269 268 269 271 275 278 281 283 281 276 269 268 272 275 278 282 280 276 270 264 262 268 273 278 283 285 290 296 295 294 290 288 293 291 279 279 285 284 285 286 279 273 277 283 286 281 279 284 288 293 299 305 310 304 291 286 282 272 267 267 269 276 281 280 279 274 263 257 257 261 260 259
298 300 302 304 303 296 282 273 275 276 276 276 274 274 273 271 269 268 267 269 272 272 276 279 278 277 272 268 267 265 265 269 271 272 272 274 274 273 274 276 278 282 286 289 290 288 286 286 287 283 275 275 282 289 287 283 277 271 275 281 282 280 282 285 287 292 296 305 313 305 290 282 278 266 263 265 266 273 282 281 277 272 259 250 246 248 249 250
300 301 302 304 303 299 287 273 271 276 276 274 272 272 272 271 268 265 265 267 269 269 272 273 274 275 270 264 263 262 262 265 268 268 270 277 280 277 275 274 274 279 283 285 285 283 280 278 276 276 273 274 279 279 272 273 276 274 275 279 282 282 283 283 285 287 290 296 299 299 296 286 275 265 261 262 264 272 279 275 270 272 269 257 246 243 247 250
308 306 307 308 306 303 294 278 268 271 276 274 271 269 269 270 267 264 265 267 269 270 268 268 269 265 262 262 263 262 264 269 273 275 274 274 275 274 272 271 272 274 277 279 275 275 277 275 274 275 274 276 279 272 268 271 275 277 277 278 281 282 282 283 286 285 284 287 289 294 299 291 281 274 262 260 263 264 266 270 274 279 277 264 252 248 253 260
315 312 310 311 313 309 298 285 271 267 271 272 270 269 268 269 268 265 264 266 269 269 265 264 258 253 261 271 273 270 270 270 270 271 272 270 270 273 273 271 271 272 274 275 269 269 275 277 277 276 275 280 280 271 271 275 279 283 282 281 284 285 287 288 286 282 282 285 286 288 289 286 288 286 266 257 259 258 259 267 274 276 273 268 262 262 266 273
315 313 310 312 317 317 307 293 279 267 266 267 267 268 270 271 270 268 264 264 268 270 269 267 256 253 263 269 269 271 275 278 277 273 270 267 267 270 272 273 273 273 274 275 274 274 277 279 280 275 274 275 272 270 273 276 280 284 283 286 291 288 287 285 277 276 279 279 279 278 277 278 281 283 275 263 258 257 258 263 270 272 271 270 271 272 274 279
315 311 308 311 317 321 321 312 294 276 267 264 262 264 268 269 268 267 267 266 267 270 274 274 267 265 267 265 263 267 275 282 285 286 282 276 270 266 267 269 270 269 270 274 275 273 273 277 276 271 273 278 273 269 271 270 275 281 283 288 292 288 284 279 271 270 272 271 271 271 269 270 272 273 276 275 269 265 263 265 268 269 270 272 273 275 278 283
316 312 306 307 310 314 322 326 314 292 273 264 262 265 266 267 267 267 266 265 265 268 272 273 271 271 270 268 268 272 279 285 287 289 286 281 275 271 266 265 266 266 266 269 268 265 266 272 272 274 283 292 280 266 264 264 270 277 281 283 286 288 288 284 277 272 271 271 271 272 273 274 275 276 276 278 278 277 275 275 277 277 277 277 273 274 279 283
319 315 309 303 302 303 308 318 320 307 286 272 267 266 265 267 269 270 269 266 262 263 266 266 266 267 268 270 274 277 282 286 287 286 284 280 274 272 270 269 271 273 271 269 264 261 266 268 270 278 287 288 278 272 275 276 270 269 274 282 288 290 289 286 286 284 281 279 275 277 283 286 283 279 277 277 277 278 280 283 285 284 280 276 273 274 277 280
320 317 313 305 298 295 297 303 309 311 304 289 276 269 266 266 268 270 272 269 264 261 262 263 264 266 267 271 276 279 281 282 282 281 282 280 273 271 274 276 276 276 277 275 269 264 267 272 273 277 281 281 278 280 285 283 275 268 267 274 282 284 284 283 286 288 287 286 284 283 287 290 287 285 282 280 278 278 281 284 290 293 285 273 267 268 275 286
323 318 315 309 299 293 292 294 296 300 302 300 294 284 275 271 271 273 273 271 268 263 261 260 261 266 270 273 276 279 280 278 276 277 278 277 273 272 276 278 275 275 278 278 275 268 263 266 269 269 271 274 277 283 286 282 276 270 264 264 269 276 279 280 283 288 290 290 290 288 290 293 295 294 290 287 286 286 286 286 291 298 291 273 266 274 285 292
328 323 318 312 304 297 294 293 294 295 296 295 296 294 289 287 286 282 278 275 270 265 261 258 260 265 271 274 278 279 278 275 275 279 279 277 276 274 274 275 275 276 276 270 268 266 263 260 259 261 267 274 279 284 286 283 272 262 259 262 267 272 274 275 279 284 285 284 285 286 291 296 297 294 293 294 296 295 293 291 290 291 286 277 278 286 291 292
332 331 328 319 309 302 297 292 289 289 289 289 288 288 290 293 292 288 285 281 273 267 266 265 265 269 273 277 279 277 275 274 275 278 279 279 278 275 274 275 274 275 275 270 264 263 266 265 261 265 272 276 278 279 280 280 274 267 263 263 265 268 268 271 277 281 281 282 283 285 288 293 293 291 293 295 296 296 295 294 291 289 286 285 288 292 296 297
336 335 334 326 315 308 302 293 287 284 283 283 283 285 287 287 283 280 280 279 274 269 270 272 272 273 275 278 279 277 276 276 275 274 276 277 276 273 272 271 271 271 273 273 269 264 265 264 261 268 272 270 272 275 275 276 275 274 272 267 264 263 265 270 275 281 284 286 288 287 287 291 294 293 295 295 294 295 297 296 295 294 294 293 293 295 298 301
341 338 334 328 320 315 309 302 298 294 289 286 284 282 279 276 274 275 277 280 278 272 269 272 274 276 276 277 279 279 278 276 274 274 275 275 275 274 272 270 270 270 268 266 264 259 260 260 257 261 265 267 269 271 271 272 274 275 273 269 266 265 268 272 273 278 284 288 290 289 288 290 292 292 293 292 291 293 296 297 296 296 296 294 294 297 301 304
344 339 335 333 328 324 320 315 309 303 299 297 291 283 276 271 272 276 280 283 283 278 271 267 270 274 276 278 279 280 278 274 271 274 277 277 277 277 274 270 268 269 269 265 261 258 259 260 257 253 257 261 262 264 267 271 276 278 274 269 268 268 270 271 272 275 280 284 288 289 290 294 293 290 290 289 290 293 294 294 293 293 295 297 298 301 303 304
345 340 338 339 337 338 338 333 328 320 315 309 297 288 281 274 271 273 279 282 284 282 273 265 265 269 274 277 278 278 277 275 274 276 278 278 279 277 274 272 272 272 272 269 266 265 265 264 261 257 256 256 257 260 266 271 276 279 275 267 265 267 268 268 270 273 272 274 279 283 288 296 294 289 290 291 293 294 293 292 294 297 300 300 300 301 303 304
345 342 341 341 341 347 350 347 347 343 336 327 311 297 288 281 276 271 270 273 277 279 274 267 267 269 272 275 276 276 277 277 277 277 277 277 279 279 278 280 281 276 271 267 264 264 265 264 262 260 258 255 256 262 267 270 274 277 276 272 269 267 267 268 270 272 271 272 275 279 284 290 288 286 289 293 295 296 295 297 300 302 302 301 302 305 306 308
346 343 342 342 341 346 351 350 351 349 345 344 338 318 297 286 280 271 263 264 270 277 278 274 273 272 269 269 271 275 278 277 275 276 275 276 279 281 281 283 281 276 274 273 267 262 264 267 266 261 256 254 257 262 265 266 269 273 273 273 271 269 269 271 272 273 276 277 277 280 285 285 282 284 289 292 295 297 298 301 301 301 303 306 308 309 309 309
348 343 341 340 339 342 345 347 347 344 344 347 349 341 321 300 288 282 277 273 274 281 284 279 273 270 266 264 266 270 274 275 275 275 276 277 278 280 282 283 281 281 280 276 270 266 266 270 272 267 259 255 256 261 264 265 267 270 272 271 270 269 270 272 275 278 281 280 278 282 286 284 282 286 290 292 294 296 299 301 300 302 305 308 307 306 307 309
347 344 341 338 337 337 338 341 342 339 338 340 343 344 339 320 301 297 296 293 291 291 291 288 281 274 267 262 262 265 269 274 276 275 275 277 277 277 280 282 283 285 281 275 272 271 269 269 270 269 265 260 257 260 264 266 266 267 269 268 267 268 271 274 278 280 280 279 280 282 281 280 284 288 288 289 291 292 294 295 297 301 304 305 305 305 307 310
346 344 342 337 334 334 333 333 335 334 333 334 334 333 331 322 312 311 309 304 299 295 293 295 294 289 278 266 260 260 264 271 275 274 275 276 276 277 278 279 279 280 279 276 274 274 272 268 266 268 268 265 260 259 262 265 267 266 267 269 271 275 278 279 280 279 276 277 281 280 275 277 281 281 282 286 288 288 289 290 293 297 301 303 304 304 306 309
346 344 344 342 337 334 331 331 332 332 332 332 331 328 325 322 318 316 313 304 298 295 293 292 293 293 289 277 265 258 258 261 266 270 273 272 273 276 278 277 276 275 274 273 273 275 275 271 266 266 268 266 262 259 260 264 266 268 272 277 281 280 277 276 275 275 275 278 282 280 278 279 280 279 281 284 287 288 288 289 291 295 299 300 299 301 304 307
349 344 343 344 343 336 332 332 333 333 333 332 329 327 324 321 316 311 308 303 299 297 295 291 290 289 288 285 275 263 256 255 258 262 266 268 271 276 276 275 274 273 272 271 271 273 276 272 267 267 269 266 261 259 260 263 266 270 274 277 278 277 275 275 277 279 280 282 283 281 280 280 279 280 282 285 287 288 287 288 292 295 297 296 297 302 305 305
351 347 342 342 344 339 333 333 333 331 332 331 328 325 321 320 317 311 307 306 303 299 296 293 292 289 287 285 281 272 265 262 260 260 262 265 269 273 275 275 273 271 270 269 267 268 272 275 274 272 268 261 258 259 260 262 267 271 271 271 274 279 280 280 280 280 281 282 281 279 279 278 277 279 282 286 289 290 291 293 295 296 297 298 302 305 305 303
351 349 344 341 343 340 332 329 330 328 327 328 326 324 321 319 319 317 313 313 311 307 302 297 293 289 286 283 281 280 277 271 266 263 263 264 267 270 275 276 272 265 262 263 264 265 269 274 276 275 269 256 254 257 258 261 268 271 271 273 276 278 279 278 277 277 278 279 280 281 281 282 281 281 284 287 291 293 295 296 297 299 301 304 306 305 303 304
Height
5824 5823 5822 5821 5821 5820 5819 5818 5818 5817 5816 5816 5815 5815 5814 5813 5813 5812 5812 5812 5811 5811 5811 5811 5811 5810 5810 5809 5809 5808 5807 5807 5806 5806 5805 5805 5804 5803 5803 5802 5802 5801 5801 5800 5800 5799 5799 5798 5797 5797 5796 5795 5795 5793 5793 5792 5791 5790 5789 5788 5788 5788 5788 5788 5788 5788 5788 5788 5789 5790 5791 5794 5794 5795 5798 5799 5797 5798 5799 5796 5796 5797 5797 5797 5798 5801 5802 5804
5823 5822 5821 5820 5820 5819 5818 5818 5817 5816 5815 5815 5814 5813 5813 5812 5812 5811 5811 5810 5810 5810 5810 5809 5809 5809 5808 5808 5807 5806 5806 5805 5804 5804 5803 5803 5802 5801 5801 5800 5800 5799 5799 5798 5798 5797 5796 5796 5795 5794 5793 5792 5792 5790 5789 5788 5788 5786 5784 5784 5784 5785 5784 5783 5783 5783 5783 5782 5783 5786 5789 5790 5790 5792 5795 5797 5795 5793 5792 5790 5790 5790 5791 5792 5795 5799 5800 5801
5823 5822 5821 5820 5819 5818 5817 5817 5816 5815 5814 5814 5813 5812 5811 5811 5810 5810 5809 5809 5809 5808 5808 5808 5808 5807 5807 5806 5805 5804 5804 5803 5802 5802 5801 5801 5800 5799 5799 5798 5798 5797 5797 5796 5796 5795 5794 5793 5792 5791 5790 5789 5788 5787 5786 5785 5783 5781 5781 5781 5781 5780 5780 5779 5779 5779 5777 5777 5779 5782 5785 5786 5786 5789 5792 5793 5792 5789 5787 5786 5786 5787 5788 5790 5792 5796 5797 5797
5823 5822 5820 5819 5818 5817 5817 5816 5815 5814 5813 5812 5812 5811 5810 5810 5809 5809 5808 5807 5807 5807 5806 5806 5806 5806 5805 5804 5803 5802 5802 5801 5801 5800 5799 5799 5798 5797 5797 5796 5796 5796 5795 5795 5794 5793 5792 5791 5790 5789 5787 5786 5785 5784 5783 5781 5779 5779 5779 5778 5777 5777 5776 5775 5775 5774 5773 5773 5775 5776 5780 5782 5784 5787 5788 5789 5790 5789 5786 5783 5784 5786 5786 5786 5788 5791 5793 5795
5822 5821 5820 5819 5818 5817 5816 5815 5814 5813 5812 5811 5810 5810 5809 5808 5808 5807 5806 5806 5806 5805 5805 5805 5804 5804 5804 5803 5802 5800 5800 5799 5799 5798 5797 5796 5796 5795 5795 5795 5794 5794 5793 5792 5792 5791 5790 5789 5788 5787 5786 5784 5783 5781 5780 5778 5778 5777 5776 5776 5775 5774 5774 5772 5771 5770 5769 5769 5771 5772 5775 5778 5781 5783 5784 5785 5788 5788 5784 5780 5781 5783 5783 5782 5784 5787 5789 5792
5821 5820 5819 5818 5817 5816 5815 5814 5813 5812 5811 5810 5809 5808 5808 5807 5806 5806 5805 5804 5804 5804 5803 5803 5803 5802 5802 5801 5800 5799 5798 5797 5796 5796 5795 5794 5794 5794 5793 5793 5792 5792 5791 5790 5789 5789 5787 5786 5785 5784 5783 5781 5780 5779 5778 5776 5775 5775 5773 5773 5772 5771 5771 5769 5768 5768 5767 5767 5767 5768 5770 5774 5777 5778 5780 5783 5785 5785 5782 5778 5778 5780 5780 5780 5782 5785 5787 5787
5820 5819 5818 5817 5816 5815 5814 5813 5812 5811 5810 5809 5808 5807 5806 5806 5805 5804 5803 5803 5802 5802 5801 5801 5801 5800 5800 5799 5798 5797 5796 5796 5795 5794 5793 5793 5792 5792 5792 5791 5790 5790 5789 5788 5787 5786 5785 5784 5782 5781 5780 5778 5777 5776 5775 5773 5773 5772 5770 5770 5769 5768 5767 5766 5766 5766 5765 5765 5764 5764 5766 5769 5772 5774 5776 5779 5781 5782 5780 5776 5774 5775 5778 5778 5779 5781 5781 5781
5819 5818 5817 5816 5815 5814 5813 5812 5810 5809 5809 5808 5807 5806 5805 5804 5803 5803 5802 5801 5801 5800 5799 5799 5799 5798 5798 5797 5796 5795 5794 5794 5793 5792 5791 5791 5790 5790 5790 5789 5789 5788 5787 5786 5785 5784 5783 5781 5779 5778 5778 5776 5775 5774 5773 5771 5770 5770 5768 5768 5767 5765 5765 5764 5764 5763 5762 5763 5762 5762 5762 5764 5768 5770 5772 5775 5777 5778 5778 5774 5770 5771 5774 5774 5774 5774 5776 5777
5818 5817 5816 5815 5813 5812 5811 5810 5809 5808 5807 5806 5805 5804 5803 5803 5802 5801 5800 5799 5799 5798 5798 5797 5796 5796 5795 5795 5794 5793 5792 5791 5791 5790 5789 5789 5788 5788 5788 5787 5787 5786 5785 5784 5783 5782 5781 5779 5778 5777 5776 5775 5773 5772 5771 5769 5768 5767 5767 5766 5765 5764 5763 5762 5762 5760 5760 5760 5759 5759 5759 5760 5763 5765 5769 5772 5772 5774 5774 5771 5768 5768 5769 5770 5770 5771 5775 5776
5817 5816 5814 5813 5812 5811 5810 5809 5808 5807 5806 5805 5804 5803 5802 5801 5800 5800 5798 5798 5797 5796 5796 5795 5794 5794 5793 5793 5792 5791 5790 5789 5789 5788 5788 5787 5787 5786 5786 5785 5785 5784 5783 5782 5781 5780 5778 5777 5776 5775 5774 5773 5772 5771 5769 5768 5767 5766 5765 5765 5764 5763 5762 5761 5760 5759 5757 5757 5756 5756 5756 5756 5757 5759 5765 5769 5769 5770 5771 5770 5767 5765 5765 5767 5767 5769 5773 5774
5815 5814 5813 5811 5810 5809 5808 5807 5806 5805 5804 5803 5802 5801 5800 5799 5799 5798 5797 5796 5795 5794 5794 5793 5792 5792 5791 5790 5790 5789 5789 5787 5787 5786 5786 5785 5785 5784 5784 5784 5783 5782 5781 5780 5779 5777 5776 5775 5774 5773 5772 5771 5770 5769 5768 5767 5766 5765 5764 5764 5763 5762 5761 5759 5759 5758 5756 5755 5754 5754 5754 5753 5753 5755 5761 5765 5764 5765 5767 5768 5766 5763 5763 5764 5764 5766 5769 5771
5813 5812 5811 5810 5808 5807 5806 5805 5804 5803 5802 5801 5800 5799 5798 5797 5796 5796 5795 5794 5793 5792 5791 5791 5790 5789 5788 5788 5788 5787 5786 5786 5785 5784 5784 5783 5783 5782 5782 5781 5781 5780 5779 5778 5777 5776 5775 5774 5772 5771 5770 5769 5769 5768 5767 5766 5766 5765 5763 5762 5762 5761 5759 5758 5757 5757 5756 5754 5754 5753 5752 5752 5752 5752 5755 5759 5760 5761 5765 5766 5765 5763 5761 5760 5761 5763 5765 5766
5811 5810 5809 5808 5806 5805 5804 5803 5802 5801 5800 5799 5798 5797 5796 5795 5794 5793 5793 5792 5791 5790 5789 5788 5788 5787 5786 5786 5785 5785 5784 5784 5783 5783 5782 5781 5781 5780 5780 5779 5778 5778 5777 5776 5775 5774 5773 5772 5771 5769 5769 5768 5767 5766 5765 5765 5765 5764 5762 5761 5760 5759 5758 5757 5756 5756 5755 5754 5753 5753 5752 5751 5751 5750 5751 5754 5757 5760 5764 5765 5765 5764 5761 5758 5759 5761 5762 5762
5809 5808 5806 5805 5804 5803 5802 5801 5800 5799 5798 5797 5796 5795 5794 5793 5792 5791 5790 5789 5788 5787 5787 5786 5786 5785 5783 5783 5783 5782 5782 5781 5781 5781 5780 5780 5779 5778 5778 5777 5777 5776 5775 5774 5773 5772 5771 5770 5769 5768 5767 5766 5765 5765 5764 5763 5763 5762 5761 5760 5759 5758 5757 5756 5756 5755 5754 5753 5752 5752 5752 5750 5750 5751 5751 5753 5756 5759 5761 5763 5763 5763 5761 5757 5756 5759 5760 5759
5806 5805 5804 5803 5802 5801 5800 5799 5798 5797 5796 5795 5794 5793 5792 5791 5790 5789 5788 5787 5786 5785 5785 5784 5783 5782 5781 5781 5781 5780 5779 5779 5779 5778 5778 5778 5777 5776 5776 5775 5774 5774 5773 5772 5771 5770 5769 5768 5767 5766 5765 5765 5764 5763 5762 5762 5761 5760 5759 5758 5757 5757 5756 5755 5754 5754 5753 5752 5752 5752 5751 5750 5750 5750 5751 5752 5754 5757 5759 5760 5761 5760 5758 5755 5754 5756 5757 5757
5803 5802 5801 5800 5799 5798 5797 5796 5795 5794 5793 5793 5792 5791 5789 5789 5788 5787 5785 5784 5784 5783 5782 5782 5781 5780 5779 5778 5778 5778 5777 5777 5777 5777 5776 5776 5775 5774 5773 5773 5772 5772 5771 5770 5769 5769 5768 5766 5765 5764 5764 5763 5762 5762 5761 5760 5760 5759 5758 5756 5755 5755 5754 5754 5753 5753 5753 5752 5752 5751 5750 5750 5749 5749 5750 5751 5753 5755 5756 5757 5757 5756 5754 5753 5752 5752 5754 5755
5800 5800 5799 5798 5796 5795 5795 5794 5793 5792 5791 5790 5789 5788 5787 5786 5786 5784 5783 5782 5781 5780 5780 5779 5778 5778 5778 5776 5776 5775 5775 5775 5774 5774 5774 5774 5773 5773 5772 5771 5770 5770 5769 5768 5767 5767 5766 5765 5763 5763 5762 5761 5761 5760 5760 5759 5758 5757 5756 5755 5754 5753 5753 5753 5752 5752 5751 5751 5751 5751 5750 5749 5749 5749 5749 5750 5751 5752 5752 5753 5753 5751 5751 5751 5751 5751 5753 5755
5797 5796 5796 5795 5794 5793 5792 5791 5790 5789 5788 5788 5787 5786 5785 5784 5784 5782 5781 5780 5779 5778 5778 5777 5776 5776 5775 5775 5774 5774 5773 5773 5772 5772 5772 5772 5771 5771 5770 5770 5769 5768 5768 5766 5765 5764 5763 5763 5762 5761 5760 5759 5759 5760 5759 5758 5757 5755 5754 5754 5753 5752 5752 5751 5751 5750 5750 5750 5750 5750 5750 5749 5748 5748 5748 5748 5749 5749 5750 5749 5749 5749 5750 5751 5751 5751 5752 5753
5794 5793 5792 5791 5791 5790 5789 5788 5787 5786 5786 5785 5785 5783 5782 5782 5782 5780 5779 5778 5776 5775 5775 5775 5774 5774 5773 5772 5772 5772 5771 5771 5771 5770 5770 5769 5769 5769 5768 5768 5767 5767 5765 5764 5763 5763 5762 5761 5760 5759 5758 5757 5758 5758 5757 5756 5754 5753 5753 5752 5751 5751 5750 5750 5750 5749 5748 5748 5748 5749 5749 5749 5748 5748 5748 5747 5747 5747 5746 5746 5746 5747 5749 5750 5749 5749 5749 5749
5790 5789 5788 5788 5787 5786 5785 5785 5784 5783 5783 5782 5782 5781 5780 5779 5779 5778 5777 5775 5774 5773 5772 5772 5772 5771 5771 5770 5770 5770 5769 5769 5769 5768 5768 5767 5767 5767 5766 5765 5765 5764 5763 5762 5761 5761 5761 5759 5758 5757 5756 5756 5756 5756 5755 5753 5752 5752 5751 5751 5750 5749 5749 5748 5748 5747 5746 5747 5747 5747 5747 5748 5748 5748 5748 5746 5745 5744 5743 5743 5743 5744 5745 5746 5746 5746 5746 5746
5786 5785 5784 5784 5783 5782 5782 5781 5781 5780 5779 5779 5778 5778 5777 5777 5776 5776 5775 5773 5772 5771 5770 5770 5770 5769 5769 5768 5768 5768 5767 5767 5767 5766 5765 5765 5765 5765 5764 5763 5763 5762 5761 5760 5759 5759 5759 5758 5757 5756 5755 5754 5754 5753 5752 5751 5751 5750 5750 5749 5749 5748 5747 5747 5747 5746 5745 5745 5746 5745 5745 5746 5746 5746 5746 5745 5744 5743 5742 5741 5741 5741 5741 5742 5743 5744 5744 5743
5782 5781 5780 5780 5779 5778 5778 5777 5777 5777 5776 5775 5775 5775 5774 5774 5774 5774 5773 5772 5771 5769 5768 5768 5767 5767 5766 5766 5766 5766 5765 5765 5765 5764 5763 5763 5763 5763 5762 5761 5760 5759 5759 5758 5757 5757 5757 5756 5755 5754 5753 5752 5751 5750 5750 5749 5749 5749 5748 5747 5747 5746 5746 5746 5745 5745 5744 5744 5744 5744 5744 5744 5743 5743 5743 5743 5742 5741 5741 5740 5739 5739 5739 5739 5740 5741 5741 5741
5778 5777 5776 5775 5775 5775 5774 5773 5773 5773 5772 5772 5771 5771 5771 5771 5771 5771 5771 5770 5769 5768 5766 5766 5765 5765 5764 5763 5764 5764 5763 5763 5763 5762 5760 5760 5761 5760 5760 5759 5758 5757 5757 5756 5755 5755 5754 5754 5753 5751 5750 5750 5749 5749 5748 5748 5748 5747 5746 5746 5745 5745 5744 5744 5744 5743 5743 5743 5743 5743 5742 5742 5741 5741 5741 5740 5740 5739 5739 5738 5738 5738 5738 5738 5738 5739 5739 5739
5774 5773 5772 5771 5771 5771 5770 5769 5769 5769 5769 5768 5768 5767 5767 5768 5768 5768 5768 5768 5767 5766 5765 5764 5763 5763 5762 5761 5761 5761 5760 5760 5760 5760 5758 5758 5758 5758 5758 5758 5757 5756 5755 5754 5753 5753 5752 5751 5751 5749 5748 5748 5748 5748 5747 5746 5746 5746 5744 5744 5744 5743 5743 5742 5742 5742 5742 5741 5741 5741 5740 5740 5740 5740 5738 5737 5737 5737 5736 5736 5736 5737 5737 5737 5737 5737 5737 5737
5770 5769 5768 5767 5766 5766 5766 5765 5765 5765 5765 5765 5765 5764 5764 5764 5765 5765 5765 5765 5764 5764 5763 5762 5761 5761 5760 5759 5758 5758 5758 5757 5758 5758 5757 5756 5756 5756 5756 5755 5754 5753 5753 5752 5751 5750 5749 5749 5748 5748 5747 5747 5746 5746 5745 5745 5745 5744 5742 5742 5742 5741 5741 5740 5740 5740 5740 5740 5739 5739 5738 5738 5738 5738 5737 5734 5733 5733 5734 5734 5735 5735 5736 5736 5736 5736 5735 5735
5766 5765 5765 5764 5763 5762 5762 5761 5761 5762 5761 5761 5761 5761 5761 5761 5761 5762 5762 5761 5761 5761 5760 5759 5758 5758 5757 5756 5756 5756 5756 5755 5755 5756 5755 5754 5754 5753 5753 5752 5751 5751 5750 5750 5749 5748 5747 5747 5746 5746 5745 5745 5744 5744 5743 5743 5744 5742 5740 5741 5741 5740 5739 5739 5738 5737 5737 5737 5737 5736 5736 5736 5736 5736 5735 5732 5731 5730 5731 5732 5733 5734 5734 5735 5735 5734 5734 5733
5763 5762 5761 5760 5759 5758 5758 5757 5757 5758 5758 5758 5757 5757 5758 5758 5758 5758 5758 5758 5758 5758 5757 5756 5756 5755 5755 5755 5754 5754 5753 5753 5753 5753 5752 5751 5752 5751 5750 5750 5749 5748 5748 5748 5747 5746 5746 5745 5745 5744 5744 5743 5743 5742 5742 5742 5742 5741 5739 5739 5739 5738 5738 5737 5736 5736 5735 5735 5735 5734 5733 5733 5733 5734 5732 5730 5729 5729 5730 5730 5731 5732 5733 5733 5733 5733 5732 5731
5760 5758 5757 5756 5756 5754 5754 5754 5753 5754 5755 5755 5754 5754 5754 5755 5755 5755 5755 5754 5755 5755 5755 5754 5753 5752 5753 5752 5752 5752 5752 5751 5751 5750 5749 5748 5749 5749 5748 5748 5746 5746 5746 5746 5746 5745 5744 5743 5743 5742 5742 5741 5741 5741 5740 5740 5740 5739 5738 5737 5737 5736 5736 5735 5735 5734 5733 5733 5733 5732 5731 5730 5731 5732 5730 5728 5728 5728 5729 5730 5730 5731 5731 5730 5730 5730 5729 5729
5757 5755 5754 5752 5752 5751 5750 5751 5750 5750 5751 5752 5751 5751 5751 5751 5752 5752 5751 5751 5751 5752 5752 5751 5750 5750 5750 5750 5750 5750 5749 5749 5749 5748 5747 5746 5746 5746 5746 5745 5744 5743 5744 5744 5744 5743 5743 5742 5741 5740 5740 5739 5739 5739 5738 5738 5737 5737 5736 5735 5734 5734 5733 5733 5733 5732 5731 5731 5731 5729 5728 5728 5729 5730 5728 5727 5727 5727 5728 5728 5728 5729 5728 5727 5726 5726 5726 5727
5754 5753 5751 5749 5748 5747 5746 5747 5747 5747 5747 5748 5748 5748 5748 5748 5749 5748 5748 5748 5747 5749 5750 5749 5748 5748 5747 5747 5747 5748 5748 5747 5747 5746 5746 5745 5744 5744 5743 5743 5742 5742 5741 5742 5742 5741 5740 5740 5739 5739 5738 5737 5737 5737 5736 5736 5735 5735 5734 5733 5733 5732 5731 5731 5730 5730 5729 5729 5728 5727 5727 5726 5726 5728 5727 5726 5726 5726 5726 5726 5726 5726 5726 5724 5723 5723 5723 5724
5752 5750 5748 5747 5745 5744 5743 5743 5744 5744 5744 5745 5745 5745 5745 5745 5745 5745 5745 5745 5744 5745 5746 5746 5746 5745 5744 5744 5745 5745 5745 5745 5745 5744 5744 5743 5742 5741 5741 5741 5740 5740 5739 5739 5739 5739 5738 5738 5738 5737 5735 5735 5735 5735 5734 5733 5733 5733 5732 5731 5731 5730 5729 5729 5728 5727 5727 5727 5726 5725 5725 5724 5724 5725 5725 5724 5724 5723 5723 5724 5724 5724 5723 5722 5720 5720 5721 5722
5749 5747 5746 5745 5743 5741 5740 5739 5740 5741 5741 5741 5742 5742 5742 5742 5742 5742 5742 5742 5742 5741 5742 5743 5743 5742 5742 5741 5742 5742 5742 5742 5742 5742 5741 5741 5740 5740 5739 5738 5738 5737 5736 5736 5736 5736 5736 5736 5736 5735 5733 5733 5734 5732 5731 5731 5731 5730 5729 5728 5729 5728 5727 5727 5726 5725 5725 5724 5723 5723 5722 5722 5722 5722 5723 5722 5722 5721 5721 5721 5721 5721 5720 5719 5717 5717 5718 5719
5746 5745 5743 5742 5741 5739 5737 5736 5736 5737 5738 5738 5739 5740 5740 5739 5739 5739 5739 5740 5740 5739 5739 5740 5739 5739 5739 5739 5739 5739 5739 5739 5739 5739 5738 5738 5738 5737 5737 5736 5735 5735 5735 5734 5734 5734 5734 5734 5733 5733 5731 5731 5732 5730 5729 5729 5729 5728 5727 5726 5726 5726 5725 5725 5724 5723 5723 5723 5721 5720 5720 5720 5720 5720 5720 5720 5719 5719 5719 5719 5718 5717 5717 5716 5715 5714 5714 5715
5743 5742 5741 5739 5738 5737 5736 5735 5734 5734 5735 5736 5736 5737 5737 5736 5736 5736 5736 5737 5737 5736 5737 5737 5736 5736 5737 5736 5735 5736 5736 5736 5737 5736 5735 5735 5735 5734 5734 5734 5733 5733 5733 5732 5732 5732 5732 5732 5730 5730 5729 5729 5729 5728 5728 5728 5727 5725 5724 5724 5724 5723 5723 5722 5722 5721 5721 5720 5719 5717 5717 5717 5717 5717 5717 5716 5716 5716 5716 5716 5715 5714 5714 5713 5712 5711 5711 5711
5740 5739 5738 5737 5735 5734 5734 5733 5733 5732 5732 5733 5733 5733 5734 5734 5733 5733 5733 5734 5735 5734 5734 5735 5734 5734 5734 5733 5732 5733 5734 5734 5733 5733 5732 5732 5732 5731 5730 5731 5730 5730 5730 5730 5729 5729 5730 5729 5728 5727 5727 5727 5726 5725 5726 5726 5725 5723 5722 5722 5721 5720 5720 5720 5719 5719 5718 5718 5717 5715 5714 5714 5714 5714 5714 5714 5714 5714 5713 5713 5712 5711 5711 5711 5710 5709 5709 5709
5737 5736 5735 5734 5733 5732 5731 5731 5731 5731 5731 5730 5730 5730 5730 5731 5731 5730 5731 5731 5731 5731 5732 5731 5731 5731 5731 5731 5730 5731 5732 5731 5730 5730 5730 5730 5730 5728 5726 5727 5727 5727 5727 5727 5726 5726 5727 5727 5726 5725 5725 5724 5723 5722 5723 5723 5722 5721 5721 5720 5719 5718 5718 5718 5717 5716 5715 5715 5714 5713 5712 5712 5711 5711 5711 5711 5711 5711 5710 5710 5709 5708 5708 5707 5707 5706 5706 5705
5735 5733 5732 5732 5730 5729 5729 5729 5729 5729 5729 5728 5728 5727 5726 5727 5728 5728 5727 5727 5727 5728 5728 5729 5729 5728 5728 5728 5728 5728 5729 5729 5727 5727 5728 5728 5727 5726 5724 5723 5723 5724 5725 5724 5723 5723 5724 5724 5723 5722 5721 5721 5720 5720 5720 5720 5720 5719 5719 5718 5717 5716 5715 5715 5714 5713 5713 5712 5711 5710 5710 5709 5709 5708 5708 5708 5707 5707 5707 5706 5706 5705 5705 5704 5704 5703 5703 5703
5733 5731 5730 5729 5728 5727 5726 5726 5726 5726 5726 5726 5725 5725 5724 5724 5725 5725 5724 5724 5724 5724 5725 5725 5726 5726 5725 5725 5725 5725 5725 5725 5725 5724 5725 5725 5725 5724 5722 5720 5720 5721 5723 5722 5721 5720 5721 5722 5721 5719 5719 5719 5718 5718 5718 5717 5717 5717 5716 5715 5715 5714 5713 5713 5713 5712 5711 5710 5709 5708 5707 5707 5707 5706 5705 5705 5705 5704 5704 5704 5703 5703 5703 5702 5701 5700 5700 5700
5731 5729 5729 5727 5726 5725 5724 5724 5723 5723 5723 5723 5722 5722 5722 5722 5722 5722 5721 5721 5721 5721 5721 5722 5723 5723 5722 5722 5722 5722 5722 5722 5722 5722 5722 5722 5722 5721 5720 5719 5718 5718 5718 5718 5718 5718 5718 5719 5718 5716 5717 5717 5716 5716 5715 5714 5714 5714 5714 5713 5712 5712 5711 5711 5711 5710 5708 5708 5707 5706 5706 5706 5705 5704 5703 5703 5702 5701 5700 5700 5700 5700 5700 5699 5698 5697 5696 5695
5729 5728 5727 5725 5723 5722 5722 5721 5720 5720 5720 5720 5719 5719 5720 5720 5719 5718 5718 5718 5718 5718 5718 5718 5719 5720 5719 5719 5719 5719 5719 5719 5719 5719 5719 5718 5718 5718 5718 5717 5715 5715 5716 5715 5715 5716 5715 5716 5716 5714 5714 5715 5714 5713 5712 5712 5711 5711 5711 5710 5710 5710 5709 5709 5709 5707 5705 5705 5704 5703 5703 5704 5703 5701 5700 5700 5699 5698 5697 5697 5697 5697 5696 5695 5694 5693 5693 5691
5728 5726 5724 5723 5721 5720 5719 5718 5717 5717 5717 5717 5717 5717 5717 5716 5715 5715 5715 5715 5714 5714 5715 5715 5715 5716 5716 5716 5716 5716 5716 5715 5715 5715 5715 5715 5714 5714 5714 5714 5713 5713 5714 5713 5713 5713 5712 5713 5714 5713 5711 5711 5711 5710 5709 5709 5709 5709 5709 5707 5707 5707 5706 5706 5706 5705 5703 5702 5701 5699 5699 5701 5701 5698 5698 5697 5696 5695 5695 5695 5694 5694 5693 5692 5691 5690 5690 5688
5726 5724 5722 5720 5719 5718 5717 5716 5715 5714 5714 5714 5714 5713 5713 5713 5713 5712 5712 5712 5711 5711 5711 5712 5712 5712 5712 5712 5712 5712 5712 5713 5712 5712 5712 5711 5711 5711 5711 5710 5710 5710 5711 5710 5710 5710 5709 5709 5712 5711 5710 5709 5708 5706 5706 5707 5707 5707 5707 5706 5705 5704 5704 5703 5703 5703 5702 5700 5698 5696 5695 5697 5698 5695 5694 5694 5693 5693 5693 5692 5692 5691 5690 5689 5687 5687 5686 5684
5725 5722 5720 5718 5717 5716 5715 5714 5713 5712 5711 5711 5710 5709 5709 5709 5710 5710 5710 5709 5708 5708 5708 5708 5708 5709 5708 5708 5709 5709 5709 5710 5709 5709 5709 5708 5708 5708 5707 5707 5708 5709 5708 5708 5707 5707 5706 5707 5708 5709 5708 5708 5705 5703 5704 5705 5704 5704 5705 5704 5703 5702 5701 5701 5700 5700 5699 5698 5697 5694 5692 5694 5693 5691 5691 5690 5690 5690 5689 5689 5689 5688 5687 5686 5684 5684 5683 5681
5723 5721 5719 5717 5716 5715 5714 5713 5712 5711 5710 5709 5708 5707 5706 5706 5707 5707 5707 5706 5705 5706 5705 5705 5705 5705 5705 5705 5705 5706 5706 5707 5707 5706 5706 5705 5705 5704 5704 5704 5705 5706 5705 5705 5704 5704 5703 5703 5705 5705 5706 5705 5703 5701 5702 5703 5702 5702 5702 5701 5700 5700 5698 5697 5697 5696 5695 5696 5695 5692 5691 5692 5690 5688 5687 5687 5686 5685 5685 5685 5685 5684 5683 5682 5681 5680 5678 5676
5723 5720 5718 5717 5715 5714 5713 5712 5711 5710 5709 5707 5706 5705 5704 5703 5703 5704 5703 5703 5703 5703 5703 5702 5702 5702 5702 5702 5703 5703 5703 5703 5704 5703 5703 5703 5702 5701 5701 5702 5702 5702 5702 5702 5701 5701 5700 5700 5701 5702 5702 5702 5700 5699 5700 5700 5700 5699 5699 5698 5698 5697 5696 5695 5694 5693 5692 5693 5691 5689 5689 5689 5687 5685 5685 5684 5682 5681 5680 5680 5680 5680 5679 5678 5677 5676 5674 5673
5722 5719 5717 5716 5715 5713 5712 5711 5710 5709 5708 5707 5705 5704 5703 5702 5701 5700 5700 5701 5701 5701 5700 5700 5699 5699 5698 5699 5699 5699 5699 5699 5700 5700 5700 5700 5700 5699 5699 5699 5698 5699 5699 5698 5698 5698 5698 5697 5697 5697 5698 5698 5698 5697 5696 5697 5697 5697 5696 5696 5695 5694 5693 5692 5690 5690 5690 5688 5688 5688 5686 5684 5684 5683 5682 5681 5680 5678 5677 5676 5676 5676 5675 5675 5674 5672 5670 5669
5722 5720 5717 5715 5714 5713 5711 5711 5710 5708 5707 5705 5705 5704 5703 5702 5700 5699 5699 5698 5699 5699 5698 5697 5696 5695 5695 5695 5696 5696 5695 5695 5696 5697 5697 5697 5697 5697 5697 5696 5696 5696 5696 5695 5694 5695 5695 5695 5694 5693 5694 5695 5695 5694 5692 5693 5694 5694 5693 5693 5692 5691 5691 5689 5688 5688 5687 5684 5684 5686 5683 5681 5681 5681 5678 5678 5677 5676 5675 5674 5673 5673 5673 5672 5671 5669 5667 5665
5720 5718 5717 5715 5713 5711 5710 5709 5708 5707 5706 5705 5704 5702 5702 5700 5699 5698 5697 5696 5696 5696 5695 5694 5693 5692 5691 5691 5691 5692 5692 5692 5692 5693 5694 5694 5694 5694 5694 5694 5693 5693 5693 5692 5691 5691 5692 5692 5691 5690 5691 5691 5691 5691 5689 5688 5690 5690 5689 5689 5689 5689 5688 5686 5685 5684 5683 5680 5681 5682 5680 5679 5679 5678 5675 5675 5674 5674 5673 5672 5672 5671 5671 5670 5668 5665 5663 5662
5719 5716 5715 5714 5712 5710 5709 5707 5706 5705 5704 5702 5701 5700 5699 5698 5697 5696 5696 5695 5693 5693 5692 5691 5690 5689 5688 5688 5688 5688 5689 5689 5689 5689 5690 5690 5691 5691 5691 5691 5690 5689 5690 5689 5688 5688 5689 5689 5688 5688 5688 5688 5688 5687 5686 5685 5685 5686 5686 5686 5686 5685 5685 5683 5682 5681 5679 5678 5678 5678 5677 5677 5676 5674 5672 5672 5672 5672 5671 5670 5669 5669 5668 5667 5665 5663 5661 5659
5719 5715 5713 5712 5711 5709 5707 5706 5704 5703 5701 5700 5699 5698 5697 5696 5695 5694 5693 5692 5691 5690 5689 5688 5687 5686 5685 5685 5684 5684 5684 5685 5685 5686 5686 5687 5688 5687 5687 5688 5687 5686 5686 5686 5685 5685 5685 5685 5685 5685 5685 5685 5684 5683 5683 5682 5682 5683 5683 5682 5681 5681 5681 5680 5678 5677 5676 5676 5675 5674 5673 5673 5672 5670 5669 5669 5669 5669 5668 5667 5667 5667 5666 5664 5662 5661 5659 5656
5718 5715 5712 5710 5709 5708 5705 5704 5703 5701 5700 5699 5697 5696 5695 5694 5693 5692 5690 5689 5689 5687 5686 5684 5684 5683 5682 5681 5681 5680 5680 5680 5681 5682 5683 5683 5684 5684 5683 5685 5684 5683 5683 5683 5682 5682 5682 5682 5682 5682 5682 5682 5681 5680 5680 5680 5680 5681 5680 5679 5678 5678 5678 5677 5675 5674 5672 5672 5672 5671 5670 5669 5668 5667 5666 5666 5666 5665 5665 5664 5664 5663 5662 5660 5659 5657 5655 5653
5718 5715 5712 5709 5708 5706 5704 5703 5702 5700 5699 5697 5696 5694 5693 5692 5691 5690 5688 5687 5685 5684 5682 5681 5680 5679 5678 5677 5677 5676 5676 5676 5677 5678 5679 5679 5680 5680 5679 5680 5680 5680 5680 5679 5678 5679 5679 5679 5679 5678 5679 5679 5678 5677 5677 5678 5678 5677 5676 5675 5676 5675 5674 5674 5672 5670 5669 5668 5668 5667 5666 5666 5665 5664 5663 5663 5662 5661 5661 5660 5660 5659 5658 5656 5655 5653 5651 5650